EW3197 Weather Reports


time (UTC)temp
C
wind
direction
speed
KPH
gust
KPH
rain 1hr
cm
rain 24hr
cm
rain mn
cm
humidity
%
barometer
mb
20260510180204 20 213 1.6 4.8 0.00 0.23 0.00 66 1011.5
20260510175704 20 212 1.6 4.8 0.00 0.25 0.00 66 1011.5
20260510175205 20 212 1.6 11.3 0.00 0.25 0.00 64 1011.6
20260510174704 21 218 4.8 9.7 0.00 0.25 0.00 62 1011.7
20260510174204 21 251 3.2 8.0 0.00 0.25 0.00 63 1011.7
20260510172204 19 282 1.6 4.8 0.00 0.28 0.00 68 1011.7
20260510171704 19 280 0.0 3.2 0.00 0.28 0.00 67 1011.7
20260510171204 20 292 4.8 11.3 0.00 0.28 0.00 66 1011.6
20260510170704 20 301 1.6 16.1 0.00 0.28 0.00 66 1011.6
20260510170204 20 237 3.2 11.3 0.00 0.28 0.00 66 1011.6
20260510165704 20 264 3.2 9.7 0.00 0.30 0.00 67 1011.7
20260510165204 21 250 4.8 9.7 0.00 0.30 0.00 64 1011.7
20260510164705 20 12 1.6 4.8 0.00 0.30 0.00 65 1011.7
20260510164204 20 51 3.2 12.9 0.00 0.30 0.00 67 1011.7
20260510163704 20 331 3.2 11.3 0.00 0.33 0.00 66 1011.7
20260510163203 20 249 3.2 4.8 0.00 0.33 0.00 65 1011.8
20260510162704 20 247 1.6 9.7 0.00 0.33 0.00 62 1011.9
20260510161704 20 313 4.8 19.3 0.00 0.33 0.00 67 1011.9
20260510161204 20 245 3.2 4.8 0.00 0.33 0.00 65 1011.9
20260510160704 20 294 4.8 12.9 0.00 0.33 0.00 66 1011.8
20260510155703 19 273 3.2 9.7 0.00 0.36 0.00 67 1012.1
20260510155204 19 254 4.8 14.5 0.00 0.36 0.00 66 1012.0
20260510154704 19 247 3.2 4.8 0.00 0.36 0.00 68 1012.0
20260510154204 19 289 3.2 9.7 0.00 0.36 0.00 69 1012.0
20260510153704 19 243 4.8 9.7 0.00 0.36 0.00 68 1012.0
20260510152204 18 228 1.6 8.0 0.00 0.36 0.00 70 1012.0
20260510151704 18 207 3.2 4.8 0.00 0.38 0.00 71 1011.9
20260510151204 18 207 4.8 9.7 0.00 0.38 0.00 72 1011.9
20260510150704 18 250 1.6 4.8 0.00 0.38 0.00 74 1012.0
20260510150204 17 255 1.6 4.8 0.00 0.38 0.00 75 1012.0
20260510145204 17 234 3.2 8.0 0.00 0.38 0.00 75 1012.0
20260510144704 17 239 3.2 4.8 0.00 0.38 0.00 74 1012.0
20260510144204 17 239 1.6 4.8 0.00 0.38 0.00 76 1011.9
20260510143204 17 241 1.6 3.2 0.00 0.38 0.00 76 1011.9
20260510141204 16 241 1.6 4.8 0.00 0.41 0.00 78 1012.0
20260510135704 15 243 1.6 9.7 0.00 0.41 0.00 78 1012.2
20260510134704 15 211 4.8 9.7 0.00 0.43 0.00 79 1012.2
20260510134204 15 218 0.0 4.8 0.00 0.43 0.00 81 1012.1
20260510133704 15 217 3.2 4.8 0.00 0.43 0.00 80 1012.2
20260510133204 15 228 3.2 9.7 0.00 0.43 0.00 81 1012.2
20260510132704 15 226 3.2 9.7 0.00 0.43 0.00 81 1012.2
20260510131204 14 267 0.0 3.2 0.00 0.43 0.00 83 1012.4
20260510130705 13 267 0.0 3.2 0.00 0.43 0.00 83 1012.5
20260510130204 13 267 0.0 1.6 0.00 0.43 0.00 84 1012.4
20260510125704 13 267 0.0 1.6 0.00 0.43 0.00 84 1012.3
20260510125204 13 267 0.0 0.0 0.00 0.43 0.00 85 1012.3
20260510124704 13 267 0.0 3.2 0.00 0.43 0.00 85 1012.3
20260510124204 13 267 0.0 0.0 0.00 0.43 0.00 86 1012.1
20260510123705 13 267 0.0 0.0 0.00 0.43 0.00 87 1012.2
20260510123204 12 267 0.0 0.0 0.00 0.43 0.00 87 1012.1
20260510122204 12 267 0.0 1.6 0.00 0.43 0.00 88 1012.0
20260510121704 12 267 0.0 0.0 0.00 0.43 0.00 88 1012.0
20260510120704 12 267 0.0 0.0 0.00 0.43 0.00 88 1012.2
20260510120205 12 267 0.0 0.0 0.00 0.46 0.00 88 1012.1
20260510115704 12 267 0.0 0.0 0.00 0.46 0.00 88 1012.1
20260510115205 12 267 0.0 0.0 0.00 0.46 0.00 88 1012.0
20260510114704 12 267 0.0 0.0 0.00 0.46 0.00 88 1012.0
20260510113704 12 267 0.0 0.0 0.00 0.46 0.00 88 1012.0
20260510113204 12 267 0.0 0.0 0.00 0.46 0.00 88 1012.1
20260510112703 12 267 0.0 0.0 0.00 0.46 0.00 89 1012.1
20260510111204 12 267 0.0 0.0 0.00 0.46 0.00 89 1012.0
20260510110704 11 267 0.0 0.0 0.00 0.46 0.00 89 1012.1
20260510110203 11 267 0.0 0.0 0.00 0.46 0.00 89 1012.0
20260510105704 11 267 0.0 0.0 0.00 0.46 0.00 89 1011.9
20260510105204 11 267 0.0 0.0 0.00 0.48 0.00 89 1011.9
20260510104204 11 267 0.0 0.0 0.00 0.51 0.00 89 1011.8
20260510103704 11 267 0.0 0.0 0.00 0.51 0.00 89 1011.8
20260510102704 11 267 0.0 1.6 0.00 0.53 0.00 89 1011.6
20260510102204 11 267 0.0 1.6 0.00 0.53 0.00 89 1011.7
20260510101704 11 266 0.0 0.0 0.00 0.56 0.00 89 1011.6
20260510101204 11 266 0.0 3.2 0.00 0.58 0.00 89 1011.5
20260510100705 11 266 0.0 1.6 0.00 0.58 0.00 90 1011.3
20260510100204 11 266 0.0 3.2 0.00 0.61 0.00 90 1011.1
20260510095705 11 268 0.0 1.6 0.00 0.64 0.00 90 1011.2
20260510095205 11 268 0.0 1.6 0.00 0.66 0.00 90 1011.3
20260510094704 11 268 0.0 0.0 0.00 0.69 0.00 90 1011.1
20260510094204 11 268 0.0 1.6 0.00 0.71 0.00 90 1011.1
20260510093205 11 285 0.0 3.2 0.00 0.76 0.00 90 1010.9
20260510092704 11 286 0.0 3.2 0.00 0.79 0.00 90 1010.7
20260510092204 11 286 0.0 3.2 0.00 0.81 0.00 90 1010.5
20260510091705 11 286 0.0 1.6 0.00 0.81 0.00 90 1010.6
20260510091206 11 286 0.0 4.8 0.00 0.84 0.00 90 1010.5
20260510090704 11 114 0.0 1.6 0.00 0.84 0.00 90 1010.3
20260510090205 11 112 0.0 3.2 0.00 0.86 0.00 90 1010.2
20260510085704 11 214 0.0 1.6 0.00 0.86 0.00 90 1010.2
20260510085204 10 214 0.0 1.6 0.00 0.89 0.00 90 1010.5
20260510084705 10 214 0.0 1.6 0.00 0.89 0.00 90 1010.7
20260510083704 10 214 0.0 0.0 0.00 0.94 0.00 90 1010.7
20260510082705 10 214 0.0 0.0 0.00 0.97 0.00 90 1010.9
20260510082205 10 214 0.0 0.0 0.00 0.99 0.00 90 1011.0
20260510081204 10 214 0.0 0.0 0.00 1.02 0.00 90 1011.4
20260510080705 10 214 0.0 0.0 0.00 1.02 0.00 90 1011.5
20260510080205 10 214 0.0 0.0 0.00 1.04 0.00 90 1011.5
20260510075705 10 214 0.0 0.0 0.00 1.07 0.00 90 1011.3
20260510075205 10 214 0.0 0.0 0.00 1.07 0.00 90 1011.3
20260510074705 10 214 0.0 0.0 0.00 1.07 0.00 90 1011.7
20260510074204 10 214 0.0 0.0 0.00 1.07 0.00 90 1011.6
20260510073204 10 214 0.0 0.0 0.00 1.07 0.00 90 1011.6
20260510072705 10 214 0.0 0.0 0.00 1.07 0.00 90 1011.6
20260510072204 10 214 0.0 0.0 0.00 1.07 0.00 90 1011.7
20260510071704 9 214 0.0 0.0 0.00 1.07 0.00 90 1011.7
20260510071204 9 214 0.0 0.0 0.00 1.07 0.00 90 1011.6
20260510070203 10 214 0.0 0.0 0.00 1.07 0.00 90 1011.4
20260510065704 10 214 0.0 0.0 0.00 1.07 0.00 90 1011.3
20260510065204 10 214 0.0 0.0 0.00 1.07 0.00 90 1011.1
20260510064204 9 214 0.0 0.0 0.00 1.07 0.00 90 1011.1
20260510062704 10 214 0.0 0.0 0.00 1.07 0.00 90 1011.1
20260510062204 9 214 0.0 1.6 0.00 1.07 0.00 89 1011.0
20260510061703 9 214 0.0 1.6 0.00 1.07 0.00 89 1010.9
20260510060704 10 214 0.0 0.0 0.00 1.07 0.00 89 1011.0
20260510055703 10 214 0.0 0.0 0.00 1.07 0.00 89 1011.2
20260510055204 10 214 0.0 0.0 0.00 1.07 0.00 89 1011.2
20260510054204 10 214 0.0 0.0 0.00 1.07 0.00 89 1011.3
20260510053704 10 214 0.0 0.0 0.00 1.07 0.00 89 1011.3
20260510053204 10 214 0.0 0.0 0.00 1.07 0.00 89 1011.3
20260510052704 10 214 0.0 0.0 0.00 1.07 0.00 89 1011.1
20260510052204 10 214 0.0 0.0 0.00 1.07 0.00 89 1011.0
20260510051704 10 214 0.0 0.0 0.00 1.07 0.00 89 1011.0
20260510051204 10 214 0.0 0.0 0.00 1.07 0.00 88 1011.1
20260510050704 10 214 0.0 0.0 0.00 1.07 0.00 88 1011.1
20260510050203 10 214 0.0 0.0 0.00 1.07 0.00 88 1011.0
20260510045703 11 214 0.0 0.0 0.00 1.07 0.00 88 1011.0
20260510045204 11 214 0.0 0.0 0.00 1.07 0.00 88 1011.1
20260510044703 11 214 0.0 0.0 0.00 1.07 0.00 88 1011.1
20260510044203 11 214 0.0 1.6 0.00 1.07 0.00 89 1011.1
20260510043204 11 214 0.0 0.0 0.00 1.07 0.00 89 1011.0
20260510042704 11 214 0.0 1.6 0.00 1.07 0.00 89 1011.1
20260510042204 11 214 0.0 3.2 0.00 1.07 0.00 89 1011.1
20260510041204 11 123 0.0 0.0 0.00 1.07 0.00 89 1011.3
20260510040704 11 123 0.0 0.0 0.00 1.07 0.00 89 1011.2
20260510040204 11 123 0.0 0.0 0.00 1.07 0.00 89 1011.2
20260510034704 11 123 0.0 0.0 0.00 1.07 1.07 89 1010.9
20260510034203 11 129 0.0 4.8 0.00 1.07 1.07 89 1011.0
20260510033704 11 132 0.0 3.2 0.00 1.07 1.07 89 1011.1
20260510033204 11 133 0.0 4.8 0.00 1.07 1.07 89 1011.1
20260510032704 11 129 0.0 0.0 0.00 1.07 1.07 89 1011.0
20260510032204 11 129 0.0 1.6 0.00 1.07 1.07 89 1010.9
20260510031705 11 128 0.0 0.0 0.00 1.07 1.07 90 1010.9
20260510031204 11 128 0.0 0.0 0.00 1.07 1.07 90 1011.1
20260510030703 11 128 0.0 0.0 0.00 1.07 1.07 90 1011.0
20260510025704 11 128 0.0 0.0 0.00 1.07 1.07 90 1011.1
20260510025204 11 129 0.0 1.6 0.00 1.07 1.07 90 1011.0
20260510024704 11 128 0.0 0.0 0.00 1.07 1.07 90 1011.1
20260510024204 11 128 0.0 0.0 0.00 1.07 1.07 90 1011.0
20260510023704 11 128 0.0 1.6 0.00 1.07 1.07 90 1011.1
20260510023204 11 128 0.0 0.0 0.00 1.07 1.07 90 1011.0
20260510022204 10 128 0.0 0.0 0.00 1.07 1.07 90 1011.1
20260510021703 10 128 0.0 1.6 0.00 1.07 1.07 90 1011.1
20260510021205 10 128 0.0 1.6 0.00 1.07 1.07 90 1011.1
20260510020704 10 128 0.0 0.0 0.00 1.07 1.07 90 1011.2
20260510020203 10 128 0.0 0.0 0.00 1.07 1.07 90 1011.1
20260510015704 10 128 0.0 0.0 0.00 1.07 1.07 90 1011.1
20260510015204 10 128 0.0 0.0 0.00 1.07 1.07 89 1011.1
20260510014704 10 128 0.0 0.0 0.00 1.07 1.07 89 1011.3
20260510014204 9 128 0.0 0.0 0.00 1.07 1.07 89 1011.0
20260510013704 10 128 0.0 0.0 0.00 1.07 1.07 89 1011.1
20260510013204 10 128 0.0 1.6 0.00 1.07 1.07 89 1011.1
20260510012703 10 128 0.0 0.0 0.00 1.07 1.07 89 1011.3
20260510012204 10 128 0.0 1.6 0.00 1.07 1.07 89 1011.3
20260510011704 10 128 1.6 3.2 0.00 1.07 1.07 89 1011.3
20260510011204 10 128 0.0 0.0 0.00 1.07 1.07 89 1011.2
20260510010704 10 128 0.0 1.6 0.00 1.07 1.07 89 1011.4
20260510010204 10 128 0.0 3.2 0.00 1.07 1.07 89 1011.4
20260510005204 10 128 0.0 0.0 0.00 1.07 1.07 89 1011.0
20260510004705 10 128 0.0 1.6 0.00 1.07 1.07 89 1010.9
20260510003204 10 128 0.0 1.6 0.00 1.07 1.07 88 1010.6
20260510002704 10 128 0.0 0.0 0.00 1.07 1.07 88 1010.7
20260510002204 10 128 0.0 1.6 0.00 1.07 1.07 88 1010.5
20260510001704 11 128 0.0 1.6 0.00 1.07 1.07 88 1010.3
20260510001204 11 128 0.0 3.2 0.00 1.07 1.07 88 1010.2
20260510000204 11 128 0.0 0.0 0.00 1.07 1.07 88 1010.0
20260509234704 11 129 1.6 4.8 0.00 1.07 1.07 87 1009.9
20260509234203 11 137 0.0 3.2 0.00 1.07 1.07 88 1009.9
20260509233704 11 137 1.6 4.8 0.00 1.07 1.07 88 1009.9
20260509233204 11 124 0.0 4.8 0.00 1.07 1.07 88 1010.0
20260509232204 11 121 0.0 4.8 0.00 1.07 1.07 88 1010.0
20260509231703 11 123 0.0 3.2 0.00 1.07 1.07 88 1010.0
20260509231204 11 122 1.6 4.8 0.00 1.07 1.07 88 1010.0
20260509230204 11 111 1.6 3.2 0.00 1.07 1.07 88 1010.0
20260509225704 11 106 0.0 4.8 0.00 1.07 1.07 88 1010.1
20260509225204 11 101 1.6 4.8 0.00 1.07 1.07 88 1010.1
20260509224703 11 208 0.0 1.6 0.00 1.07 1.07 88 1010.3
20260509224203 11 208 0.0 1.6 0.00 1.07 1.07 88 1010.2
20260509223704 11 208 0.0 1.6 0.00 1.07 1.07 88 1010.3
20260509223204 11 208 0.0 0.0 0.00 1.07 1.07 88 1010.4
20260509222704 11 208 0.0 1.6 0.00 1.07 1.07 88 1010.4
20260509222204 12 208 0.0 1.6 0.00 1.07 1.07 88 1010.3
20260509221704 12 208 0.0 0.0 0.00 1.07 1.07 88 1010.3
20260509220704 12 208 0.0 3.2 0.00 1.07 1.07 88 1010.3
20260509220204 12 208 1.6 3.2 0.00 1.07 1.07 88 1010.3
20260509215704 12 208 0.0 1.6 0.00 1.07 1.07 88 1010.3
20260509215204 12 208 1.6 3.2 0.00 1.07 1.07 88 1010.3
20260509214704 12 208 0.0 4.8 0.00 1.07 1.07 88 1010.3
20260509214204 12 207 0.0 3.2 0.00 1.07 1.07 88 1010.3
20260509213704 12 207 0.0 3.2 0.03 1.07 1.07 88 1010.3
20260509213204 12 207 0.0 3.2 0.03 1.07 1.07 88 1010.4
20260509212204 12 207 0.0 1.6 0.03 1.07 1.07 88 1010.4
20260509211704 11 207 0.0 3.2 0.03 1.07 1.07 88 1010.3
20260509211203 11 208 1.6 3.2 0.05 1.07 1.07 88 1010.4
20260509210704 11 208 1.6 3.2 0.05 1.07 1.07 88 1010.4
20260509210204 11 204 1.6 4.8 0.05 1.07 1.07 88 1010.5
20260509205704 11 188 1.6 4.8 0.05 1.07 1.07 88 1010.5
20260509205204 11 173 1.6 9.7 0.08 1.07 1.07 89 1010.6
20260509204704 11 39 1.6 3.2 0.08 1.07 1.07 89 1010.6
20260509203704 11 37 1.6 4.8 0.05 1.04 1.04 89 1010.8
20260509203204 11 51 0.0 1.6 0.05 1.04 1.04 89 1010.8
20260509202704 11 51 0.0 1.6 0.08 1.04 1.04 89 1010.9
20260509202204 11 48 1.6 8.0 0.08 1.04 1.04 89 1010.9
20260509201203 12 35 1.6 4.8 0.08 1.02 1.02 89 1011.0
20260509200704 12 78 1.6 12.9 0.08 1.02 1.02 89 1011.2
20260509200204 12 195 3.2 4.8 0.10 1.02 1.02 89 1011.3
20260509195704 12 196 3.2 11.3 0.10 1.02 1.02 89 1011.4
20260509195205 12 225 1.6 11.3 0.08 0.99 0.99 89 1011.4
20260509193704 12 234 0.0 1.6 0.10 0.99 0.99 90 1011.5
20260509193204 12 234 0.0 3.2 0.13 0.99 0.99 90 1011.5
20260509192704 12 239 1.6 4.8 0.10 0.97 0.97 90 1011.5
20260509192204 12 280 0.0 1.6 0.10 0.97 0.97 90 1011.5
20260509191703 12 280 0.0 1.6 0.10 0.97 0.97 90 1011.4
20260509191204 12 280 0.0 1.6 0.08 0.94 0.94 90 1011.4
20260509190703 12 280 0.0 1.6 0.10 0.94 0.94 90 1011.3
20260509190204 12 280 1.6 4.8 0.08 0.91 0.91 90 1011.4
20260509185704 12 281 0.0 1.6 0.08 0.91 0.91 90 1011.5
20260509185203 12 281 0.0 1.6 0.10 0.91 0.91 90 1011.5
20260509184704 12 281 0.0 0.0 0.08 0.89 0.89 90 1011.5
20260509184204 12 281 0.0 3.2 0.08 0.89 0.89 90 1011.5
20260509183704 12 281 1.6 4.8 0.08 0.89 0.89 90 1011.5
20260509182704 11 281 0.0 1.6 0.08 0.86 0.86 90 1011.3
20260509182204 11 281 0.0 0.0 0.08 0.86 0.86 90 1011.4
20260509181704 11 281 0.0 0.0 0.08 0.86 0.86 90 1011.4
20260509181204 11 281 1.6 3.2 0.08 0.86 0.86 90 1011.5
20260509180703 11 281 1.6 4.8 0.05 0.84 0.84 90 1011.6